EW4229 Weather Reports


Display with metric or nautical units.
time (UTC)temp
F
wind
direction
speed
MPH
gust
MPH
rain 1hr
in
rain 24hr
in
rain mn
in
humidity
%
barometer
mb
20240522134557 74 60 0.0 5.0 0.00 0.00 0.00 75 1014.5
20240522133048 73 155 1.0 6.0 0.00 0.00 0.00 75 1014.7
20240522130043 72 301 0.0 2.0 0.00 0.00 0.00 77 1014.9
20240522124544 0 0.0 0.0 0.00 0.00 0.00 1015.1
20240522123050 0 178 0.0 0.0 0.00 0.00 0.00 1014.8
20240522120036 0 0.0 0.0 0.00 0.00 0.00 1015.1
20240522114531 0 0.0 0.0 0.00 0.00 0.00 1014.8
20240522113028 0 0.0 0.0 0.00 0.00 0.00 1014.8
20240522110017 0 31 0.0 0.0 0.00 0.00 0.00 1014.9
20240522104513 0 0.0 0.0 0.00 0.00 0.00 1014.7
20240522103016 0 0.0 0.0 0.00 0.00 0.00 1014.6
20240522100006 59 285 0.0 0.0 0.00 0.00 0.00 94 1014.2
20240522094513 59 284 0.0 0.0 0.00 0.00 0.00 92 1014.2
20240522093009 60 284 0.0 0.0 0.00 0.00 0.00 93 1014.3
20240522090101 60 245 0.0 1.0 0.00 0.00 0.00 92 1014.3
20240522084600 61 245 0.0 0.0 0.00 0.00 0.00 92 1014.2
20240522083103 61 282 0.0 1.0 0.00 0.00 0.00 91 1014.4
20240522081658 61 282 0.0 0.0 0.00 0.00 0.00 91 1014.4
20240522080100 61 282 0.0 1.0 0.00 0.00 0.00 90 1014.4
20240522074613 62 284 0.0 1.0 0.00 0.00 0.00 90 1014.3
20240522073052 0 0.0 0.0 0.00 0.00 0.00 1014.0
20240522071648 63 155 0.0 0.0 0.00 0.00 0.00 88 1013.6
20240522070100 64 155 0.0 1.0 0.00 0.00 0.00 87 1013.7
20240522064546 63 5 0.0 1.0 0.00 0.00 0.00 88 1013.9
20240522063045 63 129 0.0 1.0 0.00 0.00 0.00 88 1014.1
20240522061644 64 348 0.0 1.0 0.00 0.00 0.00 88 1014.2
20240522060044 64 269 0.0 1.0 0.00 0.00 0.00 87 1014.3
20240522054550 64 250 0.0 1.0 0.00 0.00 0.00 87 1014.2
20240522053042 65 4 0.0 3.0 0.00 0.00 0.00 85 1014.1
20240522051635 67 65 0.0 1.0 0.00 0.00 0.00 82 1013.7
20240522050036 67 80 0.0 3.0 0.00 0.00 0.00 82 1013.8
20240522044536 67 217 0.0 3.0 0.00 0.00 0.00 83 1013.9
20240522043035 67 164 0.0 1.0 0.00 0.00 0.00 82 1013.8
20240522041632 68 136 0.0 3.0 0.00 0.00 0.00 78 1013.7
20240522040035 69 152 0.0 2.0 0.00 0.00 0.00 77 1013.8
20240522034530 69 148 0.0 3.0 0.00 0.00 0.00 76 1014.0
20240522033030 70 193 0.0 4.0 0.00 0.00 0.00 75 1013.8
20240522031628 70 162 2.0 4.0 0.00 0.00 0.00 74 1013.9
20240522030029 71 136 1.0 7.0 0.00 0.00 0.00 73 1014.1
20240522024538 71 153 0.0 6.0 0.00 0.00 0.00 73 1014.3
20240522023036 72 148 1.0 6.0 0.00 0.00 0.00 72 1014.3
20240522021627 72 160 1.0 4.0 0.00 0.00 0.00 72 1014.1
20240522020132 72 243 0.0 5.0 0.00 0.00 0.00 71 1014.0
20240522014526 73 151 0.0 6.0 0.00 0.00 0.00 70 1013.8
20240522013029 73 162 2.0 4.0 0.00 0.00 0.00 70 1013.5
20240522011624 74 174 2.0 6.0 0.00 0.00 0.00 69 1013.3
20240522010033 75 148 0.0 4.0 0.00 0.00 0.00 67 1013.1
20240522004523 75 161 0.0 4.0 0.00 0.00 0.00 65 1013.1
20240522003023 75 155 1.0 4.0 0.00 0.00 0.00 62 1013.1
20240522001622 79 225 0.0 0.0 0.00 0.00 0.00 54 1013.0
20240522000025 82 225 0.0 1.0 0.00 0.00 0.00 47 1013.1
20240521234530 84 219 0.0 1.0 0.00 0.00 0.00 45 1013.2
20240521233018 0 0.0 0.0 0.00 0.00 0.00 1013.1
20240521231617 84 157 0.0 4.0 0.00 0.00 0.00 42 1013.3
20240521230020 85 179 0.0 5.0 0.00 0.00 0.00 41 1013.4
20240521224516 85 96 0.0 3.0 0.00 0.00 0.00 42 1013.3
20240521223015 85 8 1.0 4.0 0.00 0.00 0.00 42 1013.3
20240521221615 85 5 1.0 9.0 0.00 0.00 0.00 42 1013.2
20240521220018 85 292 1.0 6.0 0.00 0.00 0.00 42 1013.3
20240521214516 85 68 1.0 7.0 0.00 0.00 0.00 43 1013.3
20240521213011 0 0.0 0.0 0.00 0.00 0.00 1013.3
20240521211609 86 338 1.0 5.0 0.00 0.00 0.00 43 1013.2
20240521210012 86 145 0.0 5.0 0.00 0.00 0.00 44 1013.1
20240521204511 85 224 2.0 7.0 0.00 0.00 0.00 43 1013.0
20240521203008 86 322 0.0 5.0 0.00 0.00 0.00 43 1012.9
20240521201608 85 330 2.0 8.0 0.00 0.00 0.00 43 1013.1
20240521200002 0 0.0 0.0 0.00 0.00 0.00 1013.3
20240521194633 85 141 3.0 0.0 0.00 0.00 0.00 1013.6
20240521193126 0 0.0 0.0 0.00 0.00 0.00 1013.7
20240521191602 85 197 2.0 7.0 0.00 0.00 0.00 47 1013.9
20240521190055 85 297 1.0 7.0 0.00 0.00 0.00 48 1014.0
20240521184556 84 157 3.0 7.0 0.00 0.00 0.00 49 1014.1
20240521183050 0 0.0 0.0 0.00 0.00 0.00 1014.1
20240521181608 83 247 1.0 6.0 0.00 0.00 0.00 49 1014.1
20240521180040 83 129 1.0 7.0 0.00 0.00 0.00 52 1014.1
20240521174543 83 169 0.0 7.0 0.00 0.00 0.00 49 1014.3
20240521173033 0 0.0 0.0 0.00 0.00 0.00 1014.4
20240521171532 82 184 1.0 10.0 0.00 0.00 0.00 52 1014.5
20240521170031 82 107 2.0 6.0 0.00 0.00 0.00 52 1014.8
20240521164529 82 325 1.0 6.0 0.00 0.00 0.00 51 1014.9
20240521163025 0 0.0 0.0 0.00 0.00 0.00 1015.1
20240521161523 80 304 1.0 11.0 0.00 0.00 0.00 59 1015.3
20240521160021 80 317 2.0 5.0 0.00 0.00 0.00 60 1015.4
20240521154516 0 0.0 0.0 0.00 0.00 0.00 1015.7
20240521153012 0 0.0 0.0 0.00 0.00 0.00 1015.7
20240521151508 0 0.0 0.0 0.00 0.00 0.00 1015.7
20240521150012 77 127 1.0 4.0 0.00 0.00 0.00 73 1015.9
20240521144505 76 139 1.0 4.0 0.00 0.00 0.00 75 1015.8
20240521143059 74 155 0.0 4.0 0.00 0.00 0.00 79 1016.0
20240521141555 0 0.0 0.0 0.00 0.00 0.00 1016.0
20240521140052 0 0.0 0.0 0.00 0.00 0.00 1015.9